Tracking 19245 objects as of 19-Aug-2018
HD Live streaming from Space Station
objects crossing your sky now

H-2A R/B

Track H-2A R/B now!
10-day predictions


NORAD ID: 43067
Int'l Code: 2017-082C
Perigee: 468.4 km
Apogee: 641.4 km
Inclination: 98.3 °
Period: 95.6 minutes
Semi major axis: 6925 km
RCS: Unknown
Launch date: December 23, 2017
Source: Japan (JPN)
Launch site: TANEGASHIMA SPACE CENTER (TNSTA)

Note: This is a ROCKET BODY
aabbcc
Your satellite tracking list
Your tracking list is empty




NASA's NSSDC Master Catalog

Two Line Element Set (TLE):
1 43067U 17082C   18229.82384351 +.00000248 +00000-0 +19121-4 0  9996
2 43067 098.3074 322.1861 0124889 040.3990 320.6428 15.06233297035778
Source of the keplerian elements: AFSPC